FW2245 Weather Reports


time (UTC)temp
F
wind
direction
speed
knots
gust
knots
rain 1hr
in
rain 24hr
in
rain mn
in
humidity
%
barometer
mb
20260510130037 47 26 3.5 8.7 0.00 0.45 0.00 77 1016.5
20260510124542 47 340 1.7 7.8 0.00 0.45 0.00 83 1016.1
20260510123038 47 350 2.6 8.7 0.00 0.45 0.00 85 1015.9
20260510121638 47 46 0.9 5.2 0.00 0.45 0.00 87 1015.7
20260510120038 47 0 0.9 3.5 0.00 0.45 0.00 88 1015.6
20260510114543 47 0 0.0 3.5 0.00 0.45 0.00 89 1015.2
20260510113036 47 0 0.0 2.6 0.00 0.45 0.00 89 1014.7
20260510111538 47 0 0.0 0.9 0.00 0.45 0.00 90 1014.4
20260510110038 47 0 0.0 0.0 0.00 0.45 0.00 90 1014.0
20260510104537 46 0 0.0 1.7 0.00 0.45 0.00 90 1013.8
20260510103037 46 0 0.0 2.6 0.00 0.45 0.00 89 1013.2
20260510101540 46 0 0.0 0.9 0.00 0.45 0.00 90 1013.2
20260510100059 46 0 0.0 0.9 0.00 0.45 0.00 89 1013.0
20260510094551 46 0 0.0 0.0 0.00 0.45 0.00 89 1012.8
20260510093038 46 0 0.0 0.9 0.00 0.45 0.00 90 1012.8
20260510091538 46 0 0.0 0.0 0.00 0.45 0.00 90 1012.4
20260510090047 46 0 0.0 0.0 0.00 0.45 0.00 90 1012.0
20260510084546 46 0 0.0 0.0 0.00 0.45 0.00 90 1011.7
20260510083034 47 0 0.0 0.9 0.00 0.45 0.00 89 1011.7
20260510081549 47 0 0.0 0.0 0.00 0.45 0.00 89 1011.5
20260510080039 48 0 0.0 0.0 0.00 0.45 0.00 89 1011.7
20260510074537 48 0 0.0 0.0 0.00 0.46 0.00 90 1011.1
20260510073037 49 0 0.0 3.5 0.00 0.46 0.00 90 1011.0
20260510071543 49 0 0.9 4.3 0.00 0.46 0.00 91 1010.7
20260510070044 51 17 0.0 8.7 0.00 0.46 0.00 92 1010.4
20260510064539 52 0 0.0 7.8 0.00 0.57 0.00 93 1010.0
20260510063037 52 360 1.7 8.7 0.00 0.57 0.00 93 1009.9
20260510061537 52 0 0.0 0.0 0.00 0.57 0.00 93 1009.7
20260510060037 53 0 0.0 0.0 0.00 0.57 0.00 93 1009.4
20260510054536 53 0 0.0 0.0 0.00 0.67 0.00 93 1009.5
20260510053041 53 0 0.0 3.5 0.00 0.67 0.00 93 1009.5
20260510051542 53 142 0.9 7.8 0.00 0.67 0.00 93 1008.9
20260510050039 53 0 0.0 2.6 0.00 0.67 0.00 93 1008.5
20260510044538 53 0 0.0 1.7 0.00 0.75 0.00 93 1008.3
20260510043041 53 0 0.0 0.9 0.00 0.75 0.00 92 1008.2
20260510041538 53 0 0.0 1.7 0.06 0.75 0.00 92 1008.2
20260510040045 54 192 0.0 0.9 0.11 0.75 0.00 92 1008.3
20260510034543 54 0 0.0 2.6 0.11 0.76 0.75 92 1008.1
20260510033039 54 0 0.0 2.6 0.11 0.76 0.75 92 1008.3
20260510031537 54 0 0.9 7.8 0.05 0.70 0.69 92 1008.5
20260510030039 55 0 0.0 0.9 0.08 0.65 0.64 92 1007.9
20260510024539 54 0 0.0 0.0 0.08 0.69 0.64 92 1008.3
20260510023038 55 0 0.0 7.0 0.08 0.69 0.64 92 1008.1
20260510021538 55 265 0.9 7.8 0.08 0.69 0.64 92 1008.5
20260510020043 54 0 0.0 0.9 0.00 0.61 0.56 91 1007.6
20260510014542 54 0 0.0 0.9 0.00 0.64 0.56 91 1007.6
20260510013037 54 0 0.0 0.0 0.00 0.64 0.56 91 1007.4
20260510011544 54 0 0.0 1.7 0.00 0.64 0.56 90 1007.2
20260510010038 55 0 0.0 2.6 0.00 0.64 0.56 90 1007.1
20260510004539 55 0 0.0 4.3 0.02 0.68 0.56 90 1007.0
20260510003039 55 0 0.0 6.1 0.06 0.68 0.56 90 1007.0
20260510001539 55 0 0.0 7.0 0.24 0.68 0.56 89 1007.0
20260510000100 55 0 1.7 7.8 0.26 0.68 0.56 89 1007.0
20260509234553 55 178 2.6 12.2 0.24 0.75 0.54 88 1007.2
20260509233045 56 267 1.7 13.0 0.19 0.70 0.49 85 1007.4
20260509231538 60 340 2.6 8.7 0.02 0.52 0.32 76 1006.8
20260509230039 68 200 0.9 7.8 0.00 0.51 0.30 56 1005.7
20260509224536 68 0 1.7 12.2 0.00 0.58 0.30 53 1004.9
20260509223039 68 198 3.5 12.2 0.00 0.58 0.30 52 1004.7
20260509221542 69 239 2.6 16.5 0.00 0.58 0.30 53 1004.8
20260509220041 69 153 4.3 14.8 0.00 0.58 0.30 52 1004.7
20260509214540 69 178 1.7 13.0 0.00 0.60 0.30 55 1004.7
20260509213040 69 201 5.2 16.5 0.00 0.60 0.30 53 1004.6
20260509211540 69 259 4.3 13.0 0.00 0.60 0.30 54 1004.9
20260509210044 69 186 5.2 20.0 0.00 0.60 0.30 55 1005.1
20260509204543 69 190 4.3 15.6 0.00 0.65 0.30 56 1005.2
20260509203036 69 242 2.6 13.9 0.00 0.65 0.30 58 1005.4
20260509201540 69 207 3.5 13.9 0.00 0.65 0.30 57 1005.5
20260509200045 69 157 3.5 10.4 0.00 0.65 0.30 58 1005.7
20260509194539 68 160 4.3 15.6 0.00 0.66 0.30 57 1006.0
20260509193037 68 250 4.3 13.0 0.00 0.66 0.30 57 1006.0
20260509191537 68 201 3.5 15.6 0.00 0.66 0.30 56 1006.2
20260509190038 67 164 4.3 16.5 0.00 0.66 0.30 57 1006.6
20260509184553 65 223 3.5 9.6 0.00 0.66 0.30 61 1006.7
20260509183041 66 212 3.5 12.2 0.00 0.66 0.30 63 1006.5
20260509181545 66 130 3.5 13.0 0.00 0.66 0.30 60 1006.5
20260509180041 66 163 4.3 9.6 0.00 0.66 0.30 62 1006.6
20260509174539 66 243 1.7 8.7 0.00 0.68 0.30 65 1006.7
20260509173039 65 163 4.3 10.4 0.00 0.68 0.30 65 1006.9
20260509171538 65 167 2.6 10.4 0.00 0.68 0.30 64 1006.9
20260509170039 65 148 0.0 9.6 0.00 0.68 0.30 67 1006.9
20260509164542 63 169 2.6 10.4 0.00 0.68 0.30 67 1006.8
20260509163039 62 242 2.6 7.8 0.00 0.68 0.30 66 1007.2
20260509161538 61 0 0.9 9.6 0.00 0.68 0.30 70 1007.5
20260509160044 61 170 2.6 11.3 0.00 0.68 0.30 69 1007.4
20260509154540 62 184 1.7 10.4 0.00 0.68 0.30 72 1007.4
20260509153043 60 136 0.9 7.8 0.00 0.68 0.30 78 1007.4
20260509151535 58 0 0.9 7.8 0.00 0.68 0.30 83 1007.4
20260509150041 58 0 0.9 9.6 0.00 0.68 0.30 84 1007.5
20260509144550 58 0 1.7 6.1 0.00 0.68 0.30 87 1007.4
20260509143040 57 184 2.6 7.0 0.00 0.68 0.30 87 1007.2
20260509141540 56 0 1.7 6.1 0.00 0.68 0.30 92 1007.2
20260509140036 55 0 1.7 7.0 0.00 0.68 0.30 94 1007.4
20260509134557 54 168 0.0 6.1 0.00 0.68 0.30 94 1007.5
20260509133044 54 180 0.0 9.6 0.00 0.68 0.30 94 1007.4
20260509131539 54 0 0.0 2.6 0.00 0.68 0.30 95 1007.5